Weather History for Lamar, CO

Change the Weather History Date:

Tuesday, November 20, 2012

  Actual Average Record
Temperature  
Mean Temperature 47 °F 38 °F  
Max Temperature 71 °F 54 °F 80 °F (1936)
Min Temperature 22 °F 22 °F 7 °F (1929)
Degree Days  
Heating Degree Days 18 27  
Month to date heating degree days 366 456  
Since 1 July heating degree days 823 923  
Moisture  
Dew Point 17 °F    
Average Humidity 47    
Maximum Humidity 81    
Minimum Humidity 13    
Precipitation  
Precipitation 0.00 in 0.01 in 0.51 in (1979)
Month to date precipitation 0.13 0.31  
Year to date precipitation 6.06 14.73  
Sea Level Pressure  
Sea Level Pressure 30.16 in    
Wind  
Wind Speed 8 mph (SSW)    
Max Wind Speed 20 mph    
Max Gust Speed 24 mph    
Visibility 10 miles    
Events      
T = Trace of Precipitation, MM = Missing Value Source: NWS Daily Summary

Daily Weather History Graph

Daily Weather History Graph

Search for Another Location

Airport:

Trip Planner

Search our weather history database for the weather conditions in past years. The results will help you decide how hot, cold, wet, or windy it might be!

Date:

Astronomy

Nov. 20, 2012 Rise Set
Actual Time 6:37 AM MST 4:35 PM MST
Civil Twilight 6:09 AM MST 5:03 PM MST
Nautical Twilight 5:36 AM MST 5:35 PM MST
Astronomical Twilight 5:05 AM MST 6:07 PM MST
Moon 12:16 PM MST (11/20) No Moon Set
Length of Visible Light 10h 54m
Length of Day
9h 57m
First Quarter, 52% of the Moon is Illuminated
Nov 20
First Quarter
Nov 28
Full
Dec 6
Last Quarter
Dec 13
New
Dec 19
First Quarter

Hourly Weather History & Observations

Time (MST) Temp. Windchill Dew Point Humidity Pressure Visibility Wind Dir Wind Speed Gust Speed Precip Events Conditions
1:53 AM 25.0 °F - 18.0 °F 75% 30.19 in 10.0 mi Calm Calm - N/A   Clear
2:53 AM 27.0 °F - 19.0 °F 72% 30.18 in 10.0 mi Calm Calm - N/A   Clear
3:53 AM 21.9 °F 14.5 °F 16.0 °F 78% 30.21 in 10.0 mi WSW 5.8 mph - N/A   Clear
4:53 AM 25.0 °F 17.1 °F 19.0 °F 78% 30.24 in 10.0 mi South 6.9 mph - N/A   Clear
5:53 AM 23.0 °F 13.1 °F 17.1 °F 78% 30.26 in 10.0 mi SW 9.2 mph - N/A   Clear
6:53 AM 21.9 °F 14.5 °F 16.0 °F 78% 30.29 in 10.0 mi SSW 5.8 mph - N/A   Clear
7:53 AM 32.0 °F 25.6 °F 18.0 °F 56% 30.28 in 10.0 mi West 6.9 mph - N/A   Clear
8:53 AM 39.9 °F 33.4 °F 18.0 °F 41% 30.27 in 10.0 mi West 10.4 mph - N/A   Clear
9:53 AM 46.9 °F - 19.0 °F 33% 30.27 in 10.0 mi West 4.6 mph - N/A   Clear
10:53 AM 55.9 °F - 21.0 °F 26% 30.22 in 10.0 mi WSW 8.1 mph - N/A   Clear
12:53 PM 64.9 °F - 18.0 °F 16% 30.14 in 10.0 mi SSW 8.1 mph - N/A   Clear
1:53 PM 68.0 °F - 18.0 °F 15% 30.10 in 10.0 mi Calm Calm - N/A   Clear
2:53 PM 71.1 °F - 17.1 °F 13% 30.08 in 10.0 mi South 5.8 mph - N/A   Clear
3:53 PM 68.0 °F - 16.0 °F 14% 30.09 in 10.0 mi SSE 5.8 mph - N/A   Clear
4:53 PM 60.1 °F - 15.1 °F 17% 30.09 in 10.0 mi South 12.7 mph - N/A   Clear
5:53 PM 57.0 °F - 14.0 °F 18% 30.12 in 10.0 mi South 17.3 mph - N/A   Clear
6:53 PM 54.0 °F - 12.9 °F 20% 30.12 in 10.0 mi South 17.3 mph - N/A   Clear
7:53 PM 53.1 °F - 12.9 °F 20% 30.10 in 10.0 mi South 18.4 mph - N/A   Clear
8:53 PM 48.0 °F - 14.0 °F 26% 30.09 in 10.0 mi SSW 11.5 mph - N/A   Clear
9:53 PM 48.9 °F - 15.1 °F 26% 30.06 in 10.0 mi SSW 11.5 mph - N/A   Clear
10:53 PM 50.0 °F - 15.1 °F 25% 30.03 in 10.0 mi SSW 12.7 mph - N/A   Clear
11:53 PM 45.0 °F - 14.0 °F 29% 30.01 in 10.0 mi Calm Calm - N/A   Clear